When you browse on this site, cookies collect data to enhance your experience and personalize the content and advertising you see.
Visit our Privacy Policy to learn more. By continuing to use the site, you agree to this use of cookies and data.

Hourly Weather Newcastle

Today, 12 July, Sunday

Time Temperature Precipitation Wind Pressure Humidity
00:00 +12°C° 0 mm 3 mps 760 mmHg 93%
01:00 +12°C° 0 mm 3 mps 760 mmHg 93%
02:00 +11°C° 0 mm 3 mps 760 mmHg 93%
03:00 +11°C° 0 mm 3 mps 760 mmHg 94%
04:00 +11°C° 0 mm 3 mps 760 mmHg 94%
05:00 +10°C° 0 mm 3 mps 760 mmHg 94%
06:00 +10°C° 0 mm 2 mps 761 mmHg 95%
07:00 +9°C° 0 mm 2 mps 761 mmHg 95%
08:00 +12°C° 0 mm 2 mps 761 mmHg 87%
09:00 +15°C° 0 mm 2 mps 761 mmHg 79%
10:00 +17°C° 0 mm 2 mps 761 mmHg 71%
11:00 +17°C° 0 mm 2 mps 761 mmHg 67%
12:00 +18°C° 0 mm 2 mps 760 mmHg 63%
13:00 +19°C° 0 mm 2 mps 760 mmHg 58%
14:00 +18°C° 0.2 mm 2 mps 760 mmHg 65%
15:00 +17°C° 0.2 mm 2 mps 760 mmHg 72%
16:00 +16°C° 0.2 mm 3 mps 760 mmHg 78%
17:00 +15°C° 0.6 mm 2 mps 760 mmHg 83%
18:00 +14°C° 0.6 mm 2 mps 760 mmHg 88%
19:00 +13°C° 0.6 mm 1 mps 760 mmHg 92%
20:00 +13°C° 0.6 mm 1 mps 761 mmHg 93%
21:00 +13°C° 0.6 mm 1 mps 761 mmHg 93%
22:00 +13°C° 0.6 mm 1 mps 761 mmHg 94%
23:00 +12°C° 1 mm 1 mps 761 mmHg 95%

Tomorrow, 13 July, Monday

Time Temperature Precipitation Wind Pressure Humidity
00:00 +12°C° 1 mm 1 mps 761 mmHg 95%
01:00 +11°C° 1 mm 1 mps 761 mmHg 96%
02:00 +10°C° 0.4 mm 2 mps 761 mmHg 96%
03:00 +9°C° 0.4 mm 2 mps 761 mmHg 96%
04:00 +9°C° 0.4 mm 3 mps 761 mmHg 97%
05:00 +9°C° 0 mm 3 mps 762 mmHg 96%
06:00 +8°C° 0 mm 3 mps 762 mmHg 96%
07:00 +8°C° 0 mm 3 mps 763 mmHg 96%
08:00 +9°C° 0 mm 3 mps 763 mmHg 91%
09:00 +10°C° 0 mm 3 mps 763 mmHg 86%
10:00 +12°C° 0 mm 3 mps 763 mmHg 82%
11:00 +13°C° 0 mm 3 mps 762 mmHg 73%
12:00 +15°C° 0 mm 2 mps 762 mmHg 64%
13:00 +17°C° 0 mm 2 mps 761 mmHg 55%
14:00 +17°C° 0 mm 2 mps 761 mmHg 58%
15:00 +16°C° 0 mm 2 mps 761 mmHg 61%
16:00 +16°C° 0 mm 2 mps 761 mmHg 64%
17:00 +14°C° 0.1 mm 2 mps 761 mmHg 71%
18:00 +12°C° 0.1 mm 3 mps 762 mmHg 78%
19:00 +10°C° 0.1 mm 3 mps 762 mmHg 85%
20:00 +9°C° 0.1 mm 3 mps 762 mmHg 85%
21:00 +9°C° 0.1 mm 3 mps 762 mmHg 86%
22:00 +8°C° 0.1 mm 4 mps 762 mmHg 87%
23:00 +8°C° 0.2 mm 5 mps 762 mmHg 87%

Day after tomorrow, 14 July, Tuesday

Time Temperature Precipitation Wind Pressure Humidity
00:00 +8°C° 0.2 mm 5 mps 762 mmHg 87%
01:00 +8°C° 0.2 mm 6 mps 762 mmHg 86%
02:00 +8°C° 0.5 mm 6 mps 761 mmHg 88%
03:00 +8°C° 0.5 mm 6 mps 761 mmHg 90%
04:00 +8°C° 0.5 mm 6 mps 761 mmHg 91%
05:00 +8°C° 0.1 mm 6 mps 761 mmHg 91%
06:00 +7°C° 0.1 mm 6 mps 761 mmHg 90%
07:00 +7°C° 0.1 mm 6 mps 761 mmHg 89%
08:00 +8°C° 3.3 mm 7 mps 761 mmHg 91%
09:00 +9°C° 3.3 mm 8 mps 761 mmHg 93%
10:00 +10°C° 3.3 mm 9 mps 761 mmHg 95%
11:00 +11°C° 0.7 mm 9 mps 761 mmHg 91%
12:00 +12°C° 0.7 mm 10 mps 761 mmHg 86%
13:00 +13°C° 0.7 mm 10 mps 761 mmHg 81%
14:00 +13°C° 0.2 mm 10 mps 761 mmHg 79%
15:00 +13°C° 0.2 mm 10 mps 762 mmHg 77%
16:00 +13°C° 0.2 mm 9 mps 762 mmHg 75%
17:00 +13°C° 0.1 mm 9 mps 763 mmHg 77%
18:00 +12°C° 0.1 mm 9 mps 763 mmHg 79%
19:00 +11°C° 0.1 mm 9 mps 763 mmHg 81%
20:00 +11°C° 0.2 mm 8 mps 763 mmHg 82%
21:00 +11°C° 0.2 mm 8 mps 763 mmHg 83%
22:00 +11°C° 0.2 mm 8 mps 764 mmHg 84%
23:00 +11°C° 0.2 mm 8 mps 763 mmHg 85%

15 July, Wednesday

Time Temperature Precipitation Wind Pressure Humidity
00:00 +11°C° 0.2 mm 8 mps 763 mmHg 87%
01:00 +10°C° 0.2 mm 8 mps 763 mmHg 88%
02:00 +10°C° 0.2 mm 8 mps 763 mmHg 88%
03:00 +10°C° 0.2 mm 8 mps 762 mmHg 88%
04:00 +10°C° 0.2 mm 9 mps 762 mmHg 88%
05:00 +10°C° 0.2 mm 9 mps 762 mmHg 88%
06:00 +10°C° 0.2 mm 8 mps 763 mmHg 88%
07:00 +10°C° 0.2 mm 8 mps 763 mmHg 88%
08:00 +10°C° 0.5 mm 8 mps 763 mmHg 87%
09:00 +10°C° 0.5 mm 8 mps 762 mmHg 86%
10:00 +10°C° 0.5 mm 8 mps 762 mmHg 85%
11:00 +11°C° 0.3 mm 8 mps 762 mmHg 82%
12:00 +11°C° 0.3 mm 9 mps 762 mmHg 79%
13:00 +12°C° 0.3 mm 9 mps 761 mmHg 76%
14:00 +11°C° 0.3 mm 9 mps 761 mmHg 76%
15:00 +11°C° 0.3 mm 9 mps 761 mmHg 76%
16:00 +11°C° 0.3 mm 9 mps 761 mmHg 76%
17:00 +11°C° 0.2 mm 9 mps 762 mmHg 78%
18:00 +10°C° 0.2 mm 9 mps 762 mmHg 81%
19:00 +10°C° 0.2 mm 9 mps 762 mmHg 84%
20:00 +10°C° 0.4 mm 8 mps 762 mmHg 85%
21:00 +10°C° 0.4 mm 8 mps 762 mmHg 85%
22:00 +10°C° 0.4 mm 8 mps 762 mmHg 86%
23:00 +10°C° 0.4 mm 8 mps 762 mmHg 86%

16 July, Thursday

Time Temperature Precipitation Wind Pressure Humidity
00:00 +9°C° 0.4 mm 8 mps 762 mmHg 87%
01:00 +9°C° 0.4 mm 8 mps 762 mmHg 88%
02:00 +9°C° 0.3 mm 8 mps 762 mmHg 86%
03:00 +10°C° 0.3 mm 8 mps 762 mmHg 85%
04:00 +10°C° 0.3 mm 8 mps 762 mmHg 84%
05:00 +10°C° 0.2 mm 8 mps 763 mmHg 84%
06:00 +10°C° 0.2 mm 8 mps 763 mmHg 85%
07:00 +10°C° 0.2 mm 7 mps 763 mmHg 85%
08:00 +10°C° 0.2 mm 7 mps 763 mmHg 84%
09:00 +10°C° 0.2 mm 7 mps 764 mmHg 83%
10:00 +11°C° 0.2 mm 7 mps 764 mmHg 82%
11:00 +11°C° 0.2 mm 7 mps 763 mmHg 81%
12:00 +11°C° 0.2 mm 7 mps 763 mmHg 81%
13:00 +12°C° 0.2 mm 7 mps 763 mmHg 80%
14:00 +11°C° 0.2 mm 7 mps 763 mmHg 82%
15:00 +11°C° 0.2 mm 7 mps 763 mmHg 83%
16:00 +11°C° 0.2 mm 7 mps 763 mmHg 85%
17:00 +11°C° 0.3 mm 7 mps 764 mmHg 85%
18:00 +11°C° 0.3 mm 7 mps 764 mmHg 85%
19:00 +11°C° 0.3 mm 7 mps 765 mmHg 86%
20:00 +11°C° 0.3 mm 7 mps 765 mmHg 85%
21:00 +11°C° 0.3 mm 7 mps 765 mmHg 85%
22:00 +11°C° 0.3 mm 7 mps 765 mmHg 85%
23:00 +10°C° 0.1 mm 6 mps 765 mmHg 85%

17 July, Friday

Time Temperature Precipitation Wind Pressure Humidity
00:00 +10°C° 0.1 mm 6 mps 765 mmHg 84%
01:00 +9°C° 0.1 mm 5 mps 765 mmHg 84%
02:00 +9°C° 0.2 mm 5 mps 765 mmHg 84%
03:00 +9°C° 0.2 mm 5 mps 765 mmHg 85%
04:00 +9°C° 0.2 mm 5 mps 765 mmHg 85%
05:00 +9°C° 0.1 mm 5 mps 765 mmHg 86%
06:00 +9°C° 0.1 mm 5 mps 766 mmHg 86%
07:00 +9°C° 0.1 mm 5 mps 766 mmHg 86%
08:00 +10°C° 0.1 mm 5 mps 766 mmHg 83%
09:00 +10°C° 0.1 mm 5 mps 767 mmHg 79%
10:00 +12°C° 0.1 mm 5 mps 767 mmHg 76%
11:00 +12°C° 0.3 mm 5 mps 766 mmHg 76%
12:00 +13°C° 0.3 mm 4 mps 766 mmHg 76%
13:00 +13°C° 0.3 mm 4 mps 766 mmHg 76%
14:00 +13°C° 0.2 mm 4 mps 766 mmHg 79%
15:00 +13°C° 0.2 mm 3 mps 766 mmHg 83%
16:00 +12°C° 0.2 mm 3 mps 766 mmHg 86%
17:00 +12°C° 0 mm 3 mps 766 mmHg 86%
18:00 +12°C° 0 mm 3 mps 766 mmHg 87%
19:00 +11°C° 0 mm 3 mps 767 mmHg 88%
20:00 +11°C° 0 mm 3 mps 767 mmHg 88%
21:00 +10°C° 0 mm 2 mps 767 mmHg 89%
22:00 +10°C° 0 mm 2 mps 767 mmHg 90%
23:00 +10°C° 0 mm 2 mps 767 mmHg 90%
Show more